Location: Tamazert
(32.6352°N, 5.2072°W)
Time: 05:11:24
(UTC+00:00)

Vanguard 1 Rocket - Pass Details

Date: 14 October 2022
Orbit: 650 x 4225 km, 34.3° (Epoch: 05 December)

Event Time Altitude Azimuth Distance (km) Brightness Sun altitude
Rises 17:19:18 0° 249° (WSW) 8,058 14.7 5.4°
Reaches altitude 10° 17:24:30 10° 249° (WSW) 7,244 14.4 4.3°
Maximum altitude 17:51:19 87° 164° (SSE) 3,896 10.6 -1.3°
Drops below altitude 10° 18:10:23 10° 78° (ENE) 5,478 10.7 -5.2°
Enters shadow 18:11:47 - 78° (ENE) 5,742 10.8 -5.5°
Sets 18:13:41 0° 79° (ENE) 6,121 - -5.9°
